Location: Newark
(42.9858°N, 0.6717°E)
Time: 20:21:08
(UTC+00:00)

S-56A Canister/Altair - Pass Details

Date: 22 November 2019
Orbit: 633 x 2499 km, 38.9° (Epoch: 06 December)

Event Time Altitude Azimuth Distance (km) Brightness Sun altitude
Rises 15:41:36 0° 234° (SW) 5,791 14.9 6.5°
Reaches altitude 10° 15:45:54 10° 230° (SW) 4,561 14.3 5.8°
Maximum altitude 15:57:09 49° 161° (SSE) 1,947 9.8 4.1°
Drops below altitude 10° 16:04:46 10° 89° (E) 3,130 10.1 3.0°
Sets 16:07:11 0° 83° (E) 3,881 10.6 2.6°
